Regional Weather Roundup
Issued by NWS New Orleans/Baton Rouge, LA

Home | Current Version | Previous Version | Text Only | Print | Product List | Glossary On
Versions: 1 2 3 4 5 6 7 8 9 10 11 12 13 14 15 16 17 18 19 20 21 22 23 24 25 26 27 28 29 30 31 32 33 34 35 36 37 38 39 40 41 42 43 44 45 46 47 48 49 50
000
ASUS44 KLIX 011306
RWRLIX
NEW ORLEANS REGIONAL WEATHER ROUNDUP
NATIONAL WEATHER SERVICE NEW ORLEANS LA
800 AM CDT TUE SEP 01 2015

NOTE: "FAIR" INDICATES FEW OR NO CLOUDS BELOW 12,000 FEET WITH NO
      SIGNIFICANT WEATHER AND/OR OBSTRUCTIONS TO VISIBILITY.
      SKY/WX - SKY CONDITION AND SIGNIFICANT WEATHER.
      TMP - AIR TEMPERATURE.     DP    - DEWPOINT TEMPERATURE.
      RH  - RELATIVE HUMIDITY.   PRES  - PRESSURE.
      HI  - HEAT INDEX.          WCI   - WIND CHILL INDEX.

*  THESE STATIONS ARE NOT NWS OR FAA STATIONS AND ARE NOT UNDER
   NWS QUALITY CONTROL.

LAZ038-040-048-061>063-065>067-069-011400-
SOUTHEAST LOUISIANA

CITY           SKY/WX    TMP DP  RH WIND       PRES   REMARKS
N.O. AUDUBON   NOT AVBL
N.O. INTL ARPT PTSUNNY   81  70  69 CALM      30.05R
N.O. LAKEFRONT MOSUNNY   80  70  71 E3        30.06R
N.O. DOWNTOWN*   N/A     81  72  74 CALM      30.06S
RESERVE*       CLOUDY    78  74  89 CALM      30.07R
SLIDELL        MOSUNNY   73  71  93 CALM      30.05S
BATON ROUGE    MOSUNNY   76  71  85 NE5       30.06R
BOOTHVILLE     MOSUNNY   83  73  72 NE6       30.05S
BELLE CHASSE   PTSUNNY   77  73  87 NE3       30.05R
BOGALUSA*      NOT AVBL
GALLIANO*      SUNNY     74  73  96 MISG      30.06R
NEW ROADS*       N/A     77  73  89 CALM      30.06S
GONZALES*        N/A     75  75  99 CALM      30.06R FOG
HAMMOND*       SUNNY     73  70  88 CALM      30.08R FOG
HOUMA*         MOSUNNY   77  75  94 N3        30.07R
PORT FOURCHON* SUNNY     82  72  69 E5        30.06R

$$

MSZ070-080>082-011400-
SOUTHERN MISSISSIPPI

CITY           SKY/WX    TMP DP  RH WIND       PRES   REMARKS
MCCOMB         SUNNY     75  71  87 N5        30.08S
GULFPORT       SUNNY     76  70  82 E3        30.06S
BILOXI         SUNNY     76  71  86 NE3       30.06S
PASCAGOULA     SUNNY     74  72  93 CALM      30.07F
STENNIS ARPT*  SUNNY     72  66  83 CALM      30.06S

$$

COASTAL OBSERVATIONS
LAKE AND NEARSHORE STATIONS

STATION/POSITION TIME  TEMP    WIND        PRES    WAVE
                       AIR SEA DIR/SP/G            HT/PER
                 (UTC) (F)     (DEG/KT/KT) (MB)    (FT/S)
PASCAGOULA       1200   74      10/  5/  7 1017.9
WAVELAND YACHT   1200   78 83   60/  3/  4 1018.2
GRAND ISLE       1200   82 86   90/  3/  7 1017.0
SOUTHWEST PASS   1200   82 86   40/  8/  8 1017.5
NEW CANAL        1200   80 85   CALM  /  1 1016.6
SHELL BEACH      1200   81 85   90/  5/  6 1016.9

OFFSHORE STATIONS

STATION/POSITION TIME  TEMP    WIND        PRES    WAVE
                       AIR SEA DIR/SP/G            HT/PER
                 (UTC) (F)     (DEG/KT/KT) (MB)    (FT/S)
64 S DAUPHIN ISL 1250   83 85   30/ 10/ 12 1017.8    1/ 7

$$




USA.gov is the U.S. government's official web portal to all federal, state and local government web resources and services.